Location: La Estación
(39.9833°N, 3.9500°W)
Time: 15:21:09
(UTC+00:00)

Cosmos 1371 Rocket - Pass Details

Date: 14 June 2025
Orbit: 750 x 785 km, 74.0° (Epoch: 19 July)

Event Time Altitude Azimuth Distance (km) Brightness Sun altitude
Rises 20:07:19 0° 338° (NNW) 3,269 8.4 -4.2°
Reaches altitude 10° 20:09:43 10° 336° (NNW) 2,332 7.6 -4.6°
Maximum altitude 20:14:59 70° 254° (WSW) 821 4.4 -5.4°
Drops below altitude 10° 20:20:10 10° 172° (S) 2,294 6.1 -6.2°
Sets 20:22:31 0° 169° (S) 3,210 6.8 -6.6°
